Weather Service Report


488 
ASUS43 KDTX 011510
RWRMI 
MICHIGAN HOURLY REGIONAL WEATHER ROUNDUP
NATIONAL WEATHER SERVICE DETROIT/PONTIAC MI
1100 AM EDT SAT OCT 01 2016

NOTE: "FAIR" INDICATES FEW OR NO CLOUDS BELOW 12,000 FEET WITH NO
SIGNIFICANT WEATHER AND/OR OBSTRUCTION TO VISIBILITY.

MIZ047>049-052>055-059>063-066>070-074>076-081>083-011600-
SOUTHEAST LOWER MICHIGAN
  
CITY           SKY/WX    TMP DP  RH WIND       PRES   REMARKS
ADRIAN         MOSUNNY   62  57  83 S6        30.06S                  
ALMA           CLOUDY    59  59 100 E5        30.09S FOG              
ANN ARBOR      PTSUNNY   63  59  87 SE8       30.05F                  
BAD AXE        RAIN      58  58 100 CALM      30.12R                  
CARO           CLOUDY    59  58  97 E6        30.08F                  
DETROIT CITY   CLOUDY    62  62 100 E5        30.07S                  
DETROIT        CLOUDY    65  61  87 SE8       30.07S                  
FLINT          CLOUDY    60  59  96 E9        30.07F                  
GROSSE ILE     MOSUNNY   65  60  83 S8        30.06S                  
HILLSDALE      MOSUNNY   61  55  82 SE8       30.04S                  
HOWELL         CLOUDY    60  59  96 SE6       30.06S                  

CITY           SKY/WX    TMP DP  RH WIND       PRES   REMARKS
JACKSON        CLOUDY    61  59  93 SE9       30.05S                  
LAMBERTVILLE   MOSUNNY   65  57  73 SE6       30.07R                  
LANSING        CLOUDY    59  57  93 E8        30.06S                  
LAPEER         CLOUDY    58  57  97 E9        30.09S                  
MASON          CLOUDY    60  59  97 E7        30.06S FOG              
MONROE         SUNNY     64  59  82 SE7       30.06S                  
MT. CLEMENS    CLOUDY    60  60 100 E8        30.06S FOG              
PONTIAC        DRIZZLE   58  57  97 E7        30.06S FOG              
PORT HURON     CLOUDY    57  57 100 E5        30.10S FOG              
TRI CITIES     CLOUDY    60  58  92 E10       30.10S                  
MIDLAND        CLOUDY    59  58  97 E8        30.09S                  
TROY           CLOUDY    61  60  94 E3        30.09S FOG              
SAGINAW HB     CLOUDY    59  55  88 E6        30.08S                  
$$
MIZ043>046-050>051-056>058-064>065-071>073-077>080-011600-
SOUTHWEST LOWER MICHIGAN
  
CITY           SKY/WX    TMP DP  RH WIND       PRES   REMARKS
BATTLE CREEK   CLOUDY    61  59  93 E7        30.04S                  
BENTON HARBOR  CLOUDY    61  57  87 NE7       30.02S                  
BIG RAPIDS     CLOUDY    58  58  97 NE5       30.08S FOG              
COLDWATER      PTSUNNY   64  57  79 SE9       30.03S                  
FREMONT        CLOUDY    58  57  99 NE8       30.06S                  
HOLLAND        CLOUDY    59  57  93 E7        30.05R                  
GRAND RAPIDS   DRIZZLE   58  56  93 E10       30.05S FOG              
IONIA          CLOUDY    58  57  97 E10       30.05S FOG              
KALAMAZOO      CLOUDY    61  57  87 VRB3      30.04S                  
LUDINGTON      CLOUDY    57  56  97 E5        30.07F                  
MARSHALL       CLOUDY    63  60  90 SE8       30.03S                  
MOUNT PLEASANT CLOUDY    59  58  97 E6        30.08S                  
MUSKEGON       CLOUDY    60  58  92 NE8       30.05S                  
SOUTH HAVEN    CLOUDY    60  59  96 E6        30.03S                  
$$
MIZ016>042-011600-
NORTHERN LOWER MICHIGAN
  
CITY           SKY/WX    TMP DP  RH WIND       PRES   REMARKS
ALPENA         LGT RAIN  58  56  93 E7        30.16S FOG              
BEAVER ISLAND  RAIN      57  55  94 NE12      30.17R                  
BELLAIRE       CLOUDY    58  56  93 N6        30.13F                  
CADILLAC       DRIZZLE   56  55  94 E10       30.10S                  
CHARLEVOIX     LGT RAIN  58  55  88 E7        30.17S                  
FRANKFORT      CLOUDY    60  54  79 E3        30.10F                  
GAYLORD        CLOUDY    56  53  90 E6        30.14S                  
GRAYLING       CLOUDY    57  55  95 E9        30.13F                  
HARBOR SPRINGS CLOUDY    57  56  95 E14       30.15F                  
HOUGHTON LAKE  CLOUDY    57  55  93 E9        30.12F                  
MANISTEE       LGT RAIN  59  56  89 E8        30.09S                  
OSCODA         DRIZZLE   58  58 100 E7        30.13S                  
PELLSTON       CLOUDY    58  55  90 E8        30.17S                  
ROGERS CITY    CLOUDY    58  55  89 E9        30.18R FOG              
TRAVERSE CITY  CLOUDY    60  56  86 NE7       30.10F                  
$$
MIZ007>008-015-011600-
EASTERN UPPER MICHIGAN
  
CITY           SKY/WX    TMP DP  RH WIND       PRES   REMARKS
KINROSS        CLOUDY    59  50  72 E12       30.20R                  
MACKINAC ISLAN CLOUDY    58  53  81 E12G20    30.17F                  
NEWBERRY       CLOUDY    58  52  81 NE5       30.19S                  
S. S. MARIE    MOSUNNY   61  49  64 VRB6      30.18F                  
MUNISING         N/A     61  52  72 NE5       30.19F                  
$$
MIZ004>006-011>014-085-011600-
CENTRAL UPPER MICHIGAN
  
CITY           SKY/WX    TMP DP  RH WIND       PRES   REMARKS
MANISTIQUE     CLOUDY    58  53  82 NE8       30.17S                  
ESCANABA       CLOUDY    61  54  77 N10       30.16F                  
MENOMINEE      CLOUDY    61  57  87 NE12      30.14F                  
SAWYER-GWINN   CLOUDY    57  52  82 E6        30.21S                  
$$
MIZ001>003-009>011-084-011600-
WESTERN UPPER MICHIGAN
  
CITY           SKY/WX    TMP DP  RH WIND       PRES   REMARKS
IRON MOUNTAIN  CLOUDY    58  52  80 N6        30.19R                  
HOUGHTON       CLOUDY    60  55  83 E8        30.22S                  
COPPER HARBOR    N/A     61  56  83 CALM      30.22S                  
IRONWOOD       MOSUNNY   55  53  93 CALM      30.23S                  
$$

ABBREVIATIONS USED IN REMARKS
   TC - TEMPERATURE IN CELSIUS
  WCI - WIND CHILL INDEX
   HX - HEAT INDEX
  VSB - VISIBILITY

  

Return to Home page


Western Regional Climate Center, wrcc@dri.edu